Location: Newark
(60.6561°N, 46.5772°E)
Time: 23:36:47
(UTC+00:00)

Tiros 1 despin weight - Pass Details

Date: 21 October 2019
Orbit: 594 x 642 km, 48.2° (Epoch: 22 November)

Event Time Altitude Azimuth Distance (km) Brightness Sun altitude
Rises 00:41:38 0° 246° (WSW) 2,943 - -23.2°
Reaches altitude 10° 00:44:37 10° 227° (SW) 2,036 - -22.9°
Maximum altitude 00:47:41 18° 186° (S) 1,596 - -22.5°
Exits shadow 00:48:31 17° 173° (S) 1,631 ? -22.4°
Drops below altitude 10° 00:50:46 10° 145° (SE) 2,033 ? -22.2°
Sets 00:53:44 0° 126° (SE) 2,937 ? -21.8°
